Content
SEND FEEDBACK

Daily
Averages
Monthly
Summary
Portugal

FETEIRAS, PORTUGAL


Home > Europe > Portugal
Elevation: 118 feet     Latitude: 37 42N     Longitude: 025 42W

WEATHER
 
SELECT A DAY
Number of Records: 243,139;   Date Range: 1/23/97 - 12/17/14
 
SHARE

PRINT THIS DATA

[ ← Previous Day ]
WEATHER ALMANAC - JANUARY 31, 2013
[ Next Day → ]
[ °C ]   °F
Weather ElementAverageHighLow
Temperature61 °F63 °F (2:00 pm)57 °F (2:00 am)
Dewpoint59.2 °F62 °F (2:00 pm)55.4 °F (2:00 am)
Humidity94.1 %100 % (2:00 am)88 % (3:00 am)
Barometer30.12 in30.27 in (11:00 pm)30.04 in (12:30 am)
Wind Speed11.5 mph20.1 mph (8:00 pm)
Weather ElementAverage
Visibility5.8 mi
Wind DirectionSSW (199.1 °)

Weather ElementTotal
Precipitation---
Heating Degree Days5 (Base 65)
Growing Degree Days10 (Base 50)
Averaged from 55 records on January 31, 2013
WEATHER CONDITIONS BREAKOUT
WIND DIRECTION BREAKOUT
WEATHER BY HOUR - JANUARY 31, 2013
[ °C ]   °F
Local TimeTemperatureDewpointHumidityBarometerVisibilityWind DirectionWind SpeedGust SpeedPrecipitationEventsConditions
12:30 AM60.8 °F59.0 °F94 %30.04 in6.2 miSouth (170°)15.0 mphScattered Clouds
1:00 AM60.8 °F59.0 °F94 %30.04 in6.2 miSouth (170°)17.3 mphMostly Cloudy
1:30 AM60.8 °F59.0 °F94 %30.04 in6.2 miSouth (170°)19.6 mphMostly Cloudy
2:00 AM57.0 °F57.0 °F100 %30.06 in6.0 miWest (270°)17.9 mphRainLight Rain Showers
2:00 AM57.2 °F55.4 °F94 %30.04 in5.6 miSouth (190°)19.6 mphRainLight Rain Showers
2:30 AM57.2 °F55.4 °F94 %30.04 in6.2 miWNW (300°)9.2 mphMostly Cloudy
3:00 AM59.0 °F55.4 °F88 %30.04 in6.2 miWest (270°)9.2 mphMostly Cloudy
3:30 AM59.0 °F57.2 °F94 %30.04 in6.2 miWSW (250°)4.6 mphRainLight Rain Showers
4:00 AM59.0 °F57.2 °F94 %30.04 in6.2 miSouth (190°)8.1 mphScattered Clouds
4:30 AM59.0 °F57.2 °F94 %30.04 in6.2 miSouth (170°)6.9 mphScattered Clouds
5:00 AM59.0 °F59.0 °F100 %30.06 in12.0 miSouth (190°)6.7 mphRainLight Rain Showers
5:00 AM59.0 °F57.2 °F94 %30.04 in6.2 miSSW (200°)6.9 mphScattered Clouds
5:30 AM59.0 °F57.2 °F94 %30.04 in6.2 miSouth (180°)6.9 mphPartly Cloudy
6:00 AM59.0 °F57.2 °F94 %30.04 in6.2 miSouth (170°)5.8 mphPartly Cloudy
6:30 AM59.0 °F57.2 °F94 %30.04 in6.2 miSSE (160°)5.8 mphPartly Cloudy
7:00 AM59.0 °F57.2 °F94 %30.06 in6.2 miSSE (160°)5.8 mphScattered Clouds
7:30 AM60.8 °F57.2 °F88 %30.06 in6.2 miSSE (160°)8.1 mphMostly Cloudy
8:00 AM60.0 °F60.0 °F99 %30.11 in12.0 miSouth (170°)11.2 mphMostly Cloudy
8:00 AM60.8 °F59.0 °F94 %30.09 in6.2 miSSE (160°)9.2 mphMostly Cloudy
8:30 AM60.8 °F57.2 °F88 %30.09 in6.2 miSouth (170°)9.2 mphMostly Cloudy
9:00 AM60.8 °F57.2 °F88 %30.09 in6.2 miSouth (170°)6.9 mphMostly Cloudy
9:30 AM60.8 °F59.0 °F94 %30.09 in6.2 miSSE (160°)8.1 mphScattered Clouds
10:00 AM60.8 °F59.0 °F94 %30.12 in6.2 miSouth (180°)10.4 mphScattered Clouds
10:30 AM60.8 °F59.0 °F94 %30.12 in6.2 miSSW (200°)12.7 mphScattered Clouds
11:00 AM62.0 °F61.0 °F97 %30.17 in7.0 miSSW (200°)15.7 mphMostly Cloudy
11:00 AM60.8 °F59.0 °F94 %30.15 in6.2 miSSW (200°)12.7 mphScattered Clouds
11:30 AM60.8 °F59.0 °F94 %30.15 in6.2 miSouth (190°)12.7 mphScattered Clouds
12:00 PM62.6 °F60.8 °F94 %30.15 in5.0 miSouth (180°)13.8 mphScattered Clouds
12:30 PM62.6 °F59.0 °F88 %30.12 in5.6 miSouth (180°)13.8 mphScattered Clouds
1:00 PM62.6 °F60.8 °F94 %30.12 in5.6 miSouth (170°)15.0 mphScattered Clouds
1:30 PM62.6 °F60.8 °F94 %30.12 in5.6 miSouth (170°)15.0 mphScattered Clouds
2:00 PM63.0 °F62.0 °F94 %30.14 in6.0 miSouth (180°)17.9 mphMist
2:00 PM62.6 °F60.8 °F94 %30.12 in5.6 miSouth (180°)16.1 mphScattered Clouds
2:30 PM62.6 °F60.8 °F94 %30.12 in5.6 miSouth (190°)13.8 mphScattered Clouds
3:00 PM62.6 °F59.0 °F88 %30.12 in5.6 miSSW (200°)11.5 mphScattered Clouds
3:30 PM62.6 °F60.8 °F94 %30.12 in5.6 miSouth (180°)9.2 mphScattered Clouds
4:00 PM62.6 °F60.8 °F94 %30.12 in5.6 miSouth (190°)8.1 mphScattered Clouds
4:30 PM62.6 °F60.8 °F94 %30.15 in5.6 miSSW (210°)8.1 mphScattered Clouds
5:00 PM62.0 °F61.0 °F97 %30.17 in5.0 miSW (220°)4.5 mphMist
5:00 PM62.6 °F60.8 °F94 %30.15 in5.0 miSW (220°)6.9 mphMostly Cloudy
5:30 PM62.6 °F60.8 °F94 %30.15 in5.0 miSouth (190°)4.6 mphMostly Cloudy
6:00 PM60.8 °F59.0 °F94 %30.15 in5.0 miSSW (200°)6.9 mphMostly Cloudy
6:30 PM60.8 °F59.0 °F94 %30.15 in5.0 miSSW (210°)8.1 mphMostly Cloudy
7:00 PM60.8 °F59.0 °F94 %30.18 in5.0 miSSW (210°)15.0 mphMostly Cloudy
7:30 PM60.8 °F59.0 °F94 %30.18 in5.0 miSSW (210°)16.1 mphMostly Cloudy
8:00 PM62.0 °F62.0 °F99 %30.22 in5.0 miSSW (210°)20.1 mphMist
8:00 PM62.6 °F60.8 °F94 %30.18 in5.0 miSSW (210°)16.1 mphMostly Cloudy
8:30 PM62.6 °F60.8 °F94 %30.21 in4.3 miSW (220°)15.0 mphMostly Cloudy
9:00 PM62.6 °F60.8 °F94 %30.21 in4.3 miSW (220°)16.1 mphMostly Cloudy
9:30 PM62.6 °F60.8 °F94 %30.21 in0.6 miWSW (240°)16.1 mphFogLight Drizzle
10:00 PM62.6 °F60.8 °F94 %30.24 in0.9 miWSW (240°)16.1 mphMostly Cloudy
10:30 PM62.6 °F60.8 °F94 %30.24 in6.2 miWSW (240°)11.5 mphMostly Cloudy
11:00 PM61.0 °F61.0 °F99 %30.27 in6.0 miSW (230°)13.4 mphPartly Cloudy
11:00 PM62.6 °F60.8 °F94 %30.24 in6.2 miSW (230°)10.4 mphScattered Clouds
11:30 PM60.8 °F60.8 °F100 %30.24 in6.2 miWSW (250°)10.4 mphMostly Cloudy
Hourly data recorded from LPPD, located miles away from Feteiras, Portugal







STORIES FROM OUR PARTNERS